Temperature
20 20 19 19 19 19 19 19 19 19 19 19 19 19 19 19 19 19 19 19 19 19 19 19 19 19 19 19 19 20 19 19 19 19 19 19 19 19 19 19 19 19 18
21 20 19 19 19 19 19 19 19 19 19 19 19 19 19 19 19 19 19 19 19 19 19 19 19 19 19 19 19 19 19 19 19 19 19 19 19 19 19 19 19 19 19
20 20 20 19 19 19 19 19 19 19 19 20 19 19 19 19 19 19 19 19 19 19 19 19 19 19 19 19 19 19 19 19 19 19 19 19 19 19 19 19 19 19 19
20 20 20 20 20 19 19 20 20 20 20 20 20 19 19 19 19 19 19 19 19 19 19 19 19 19 19 19 19 19 19 19 19 19 19 19 19 19 19 19 19 19 19
20 20 20 20 20 20 20 20 20 20 20 20 20 20 20 20 20 20 20 20 19 19 19 19 19 19 19 19 19 19 19 19 19 19 19 19 19 19 19 19 19 19 19
20 20 20 20 20 20 20 20 20 20 20 20 20 20 20 20 20 20 20 20 19 19 19 19 19 19 19 19 19 19 19 19 19 19 19 19 19 19 19 19 19 19 19
21 20 20 20 20 20 20 20 19 20 20 19 19 20 20 20 20 20 19 19 19 19 19 19 19 18 18 18 18 18 18 18 18 19 18 18 18 18 18 19 19 18 18
21 21 20 20 20 20 20 20 19 19 19 19 19 19 19 19 19 19 19 19 19 19 19 18 18 18 18 18 18 18 18 18 18 18 18 18 18 18 18 18 18 18 18
21 21 21 20 20 20 20 20 20 19 19 19 19 19 19 19 19 19 19 19 19 19 18 18 18 18 18 18 18 18 18 18 18 18 18 18 18 18 18 18 18 18 18
21 21 21 21 21 20 20 20 20 19 19 19 19 19 19 19 19 19 19 19 19 19 18 18 18 18 18 18 18 18 18 18 18 18 18 18 18 18 18 18 18 18 18
20 21 21 21 21 20 20 20 20 19 19 19 19 19 19 19 19 19 19 19 19 19 18 18 18 18 18 18 18 18 18 18 18 18 18 18 18 18 18 18 18 18 18
21 21 21 21 20 20 20 20 20 19 19 19 19 19 19 19 19 19 19 19 19 19 18 18 18 18 18 18 17 17 18 18 18 18 17 17 17 18 18 18 18 18 18
21 20 20 20 20 20 20 20 19 19 19 19 19 19 19 19 19 19 19 19 19 19 19 18 18 18 18 18 17 17 18 18 18 17 17 17 17 17 18 18 18 18 18
20 20 20 20 20 20 20 20 19 19 19 19 19 19 19 19 19 19 19 19 19 19 19 18 18 18 18 18 17 17 18 18 18 17 17 17 17 17 18 18 18 18 18
19 20 20 20 20 20 20 19 19 19 19 19 19 19 19 19 19 19 18 19 19 19 19 18 18 18 18 17 17 18 18 18 17 17 17 17 17 17 17 17 17 17 18
18 19 19 20 20 20 20 20 20 19 19 19 19 19 19 19 19 19 18 19 19 19 19 18 18 18 17 17 18 18 18 18 17 17 17 17 17 17 17 17 17 17 17
17 18 18 19 19 20 20 20 20 19 19 19 19 19 19 19 19 19 18 18 19 19 18 18 18 18 18 18 18 18 18 17 17 17 17 17 17 17 17 17 17 17 17
17 18 18 19 19 20 20 20 20 19 19 19 19 19 18 18 18 18 18 18 18 18 18 18 18 18 18 18 18 18 17 17 17 17 17 17 17 17 17 17 17 17 17
17 17 18 18 19 19 19 20 20 19 19 19 19 19 19 18 18 18 18 18 18 18 18 18 18 18 18 18 18 17 17 17 17 17 17 17 17 17 17 17 17 17 17
16 17 17 17 18 18 19 19 20 20 19 19 19 19 19 19 18 18 18 18 18 18 18 18 18 18 18 18 18 17 17 17 17 17 17 17 17 17 17 17 17 17 17
16 16 17 17 17 18 18 19 19 19 19 20 19 19 19 19 18 18 18 18 18 18 18 18 18 18 18 18 17 17 17 17 17 17 17 17 17 17 17 17 17 17 17
15 15 16 16 16 17 17 17 18 19 19 19 19 19 19 19 18 18 18 18 18 18 18 17 17 17 17 17 17 17 17 17 17 17 17 17 17 17 17 17 17 17 17
14 14 14 15 15 16 16 17 17 18 18 18 19 19 19 19 18 18 18 18 17 17 17 17 17 17 17 17 17 17 17 17 17 17 17 17 17 17 17 17 17 17 17
13 13 13 14 14 15 15 15 16 16 17 18 18 18 18 18 18 18 18 18 17 17 17 17 16 16 16 16 17 17 17 17 17 17 17 17 17 17 17 17 17 17 16
13 13 13 13 13 14 14 14 15 15 16 16 17 17 17 17 18 18 18 17 17 17 17 16 16 16 16 16 16 16 16 16 16 16 16 17 17 17 17 17 17 17 16
13 13 13 13 13 13 14 14 14 15 15 15 16 16 16 16 16 17 17 17 16 16 16 16 16 16 15 15 15 15 15 15 16 16 16 16 16 16 16 16 16 16 16
Wind_Speed
5 7 12 12 12 12 13 13 13 14 15 15 15 15 15 15 14 13 12 11 10 9 9 9 9 9 10 10 11 11 11 10 10 11 11 11 11 11 11 10 10 9 11
9 11 13 13 13 12 12 12 12 13 13 14 14 14 14 14 14 13 12 11 10 9 9 9 9 9 10 10 10 11 11 10 10 10 11 11 11 11 11 11 10 9 10
11 11 14 14 13 13 12 12 12 12 12 12 12 13 13 13 13 12 12 11 10 9 9 8 9 9 9 9 10 10 10 10 10 10 10 9 10 11 11 11 10 10 9
11 12 13 14 14 13 12 12 11 11 11 11 11 11 11 11 11 11 11 10 9 9 8 8 8 8 9 9 9 9 9 9 10 9 8 7 8 10 10 10 10 10 9
10 12 13 15 14 13 12 12 11 11 11 10 10 10 10 10 10 10 9 9 8 8 8 7 7 7 7 8 8 8 8 8 9 8 8 7 8 9 9 10 10 9 9
9 12 14 15 14 13 12 11 11 11 10 10 9 9 9 9 9 8 8 8 7 7 6 6 6 6 6 7 7 7 7 8 8 8 7 6 6 8 9 9 9 8 9
9 11 14 16 14 13 12 11 11 10 10 10 9 9 8 8 7 7 7 6 6 5 5 5 5 5 5 5 5 5 6 8 8 6 5 4 4 6 8 8 8 7 8
10 10 13 16 15 14 13 12 11 11 10 10 9 8 7 7 7 6 6 5 4 4 4 4 4 4 4 5 5 5 5 6 6 4 4 2 3 5 6 7 7 6 6
7 8 9 13 15 15 14 13 13 12 11 10 9 8 7 6 6 6 5 4 3 3 3 3 4 4 4 5 5 4 4 5 6 4 3 2 2 4 5 5 6 6 6
6 6 6 9 12 13 14 15 14 13 13 12 11 9 8 7 7 6 6 4 3 2 2 2 3 4 4 4 4 4 4 4 5 4 3 3 3 3 4 5 5 5 5
7 6 5 6 9 10 11 13 14 14 14 13 12 11 10 7 6 6 6 5 4 3 2 1 1 2 4 5 5 4 4 2 4 4 4 3 3 3 3 4 4 5 5
9 8 6 6 6 7 10 10 11 11 12 13 11 11 10 8 7 6 6 6 6 4 3 2 0 2 4 4 4 4 3 1 3 4 4 4 3 2 3 3 4 4 4
6 7 8 7 6 6 6 6 7 8 9 11 12 11 10 8 7 6 5 5 4 4 2 1 2 2 2 2 2 1 1 1 4 4 4 4 3 3 3 3 3 3 3
3 5 6 8 6 7 7 5 6 6 6 7 11 12 10 6 5 5 5 5 4 3 3 2 1 1 1 1 2 2 2 2 4 4 4 4 4 4 4 4 3 3 3
7 6 5 7 8 7 6 5 6 6 7 9 10 12 12 7 4 5 5 6 7 6 5 4 3 3 2 3 4 4 4 5 5 5 4 4 4 4 4 4 4 4 3
11 10 7 5 6 7 8 8 6 7 9 9 10 12 14 11 7 5 4 5 6 8 8 6 4 3 2 3 4 5 6 7 7 6 5 5 4 4 4 4 5 4 4
11 10 9 6 4 5 8 9 7 8 9 8 10 13 15 14 11 7 5 5 7 9 8 5 4 3 2 3 3 3 4 6 6 7 6 5 5 4 4 4 5 5 4
11 11 11 9 7 5 6 8 6 8 8 8 11 12 15 16 14 9 6 6 8 8 6 4 3 3 3 3 3 2 2 3 5 6 6 6 5 4 4 4 4 4 4
11 11 11 11 10 8 6 6 7 7 8 9 10 11 14 16 15 10 6 6 7 5 4 5 4 4 4 4 4 2 2 3 3 5 5 7 7 5 4 4 3 3 3
10 10 10 11 11 10 6 4 5 7 7 7 8 10 12 13 14 11 6 6 6 5 5 5 4 4 3 4 3 2 2 3 3 4 5 6 7 7 6 4 3 3 3
11 11 11 11 11 9 6 4 4 5 6 6 7 9 10 10 11 8 6 5 5 6 6 6 4 4 3 3 3 1 1 2 3 4 3 3 5 8 7 6 5 4 4
12 11 11 11 11 9 8 6 4 4 4 5 5 7 9 10 9 8 7 5 5 5 4 5 4 3 3 4 4 3 1 3 2 2 3 4 5 5 6 8 7 7 6
11 12 11 11 11 10 10 7 6 3 2 2 4 6 6 8 9 7 7 6 6 5 5 5 5 5 4 3 2 4 4 5 3 2 2 2 3 4 4 6 8 8 8
11 11 10 10 10 10 10 8 8 4 4 4 3 4 5 6 7 8 8 8 8 7 7 7 6 4 4 4 2 1 2 3 3 1 2 2 2 3 4 4 6 9 10
10 10 9 9 9 9 9 9 8 6 4 3 2 2 3 4 5 6 7 8 8 7 8 8 8 7 5 5 4 3 2 1 2 2 2 1 1 2 3 4 5 7 10
10 9 9 9 9 9 9 9 9 8 6 4 2 1 1 1 2 3 4 6 6 6 8 8 8 8 7 6 5 4 4 3 4 4 3 2 2 2 2 3 4 6 9
Wind_Direction
168 168 163 152 147 141 134 128 124 123 122 124 125 127 128 129 131 132 132 132 133 134 134 132 130 128 125 123 121 118 114 109 103 98 95 94 96 98 99 97 95 94 96
149 160 159 152 149 144 139 133 130 128 127 127 128 129 130 131 131 132 133 132 131 131 133 133 133 131 127 126 123 120 117 111 105 101 96 93 95 99 99 98 99 101 100
142 153 154 151 151 148 145 141 138 136 133 132 131 132 132 133 133 133 132 132 131 131 132 134 134 132 129 126 123 119 118 116 114 107 100 93 96 99 100 99 100 101 102
143 147 151 154 153 152 152 150 147 144 140 137 136 135 134 133 133 132 132 132 132 131 131 133 135 134 133 129 123 119 119 119 120 114 100 93 97 102 100 98 97 99 99
144 146 157 158 157 157 157 156 154 150 146 144 141 139 136 135 134 133 133 131 130 130 131 132 135 138 137 132 125 121 123 124 123 116 105 97 99 106 103 100 98 99 97
147 151 164 162 163 163 163 163 161 158 155 153 149 145 141 138 135 133 132 128 126 127 129 130 134 139 139 134 124 118 120 124 123 120 112 107 108 113 110 107 104 102 99
152 158 169 167 169 170 171 172 170 167 164 160 157 153 151 146 139 135 131 125 122 122 124 124 128 136 137 130 118 111 114 125 128 123 116 114 119 123 119 115 111 109 106
159 164 173 174 176 178 178 179 178 177 174 169 167 165 165 159 150 143 137 129 123 115 111 109 110 121 124 117 109 106 110 126 132 124 118 124 140 127 120 117 115 112 110
164 168 178 181 183 185 185 186 186 186 183 180 179 180 182 177 168 161 154 148 141 126 112 101 98 101 104 101 98 100 111 127 132 136 137 157 160 133 121 118 115 117 118
170 180 186 186 186 188 191 193 192 192 189 188 189 191 194 194 187 180 173 173 174 167 144 107 93 89 84 80 81 90 102 121 143 153 164 188 175 144 127 120 116 116 121
191 198 197 197 197 195 195 200 198 198 196 195 196 198 197 198 195 192 189 194 204 204 194 155 94 81 72 59 55 71 82 109 166 178 195 210 189 159 136 126 121 120 124
205 205 204 205 206 202 205 207 204 200 199 197 196 198 192 190 195 198 204 213 218 221 223 222 234 52 63 54 45 58 69 107 194 205 218 230 217 193 158 138 129 126 130
222 215 209 208 211 207 214 208 203 201 196 195 194 194 189 187 195 200 204 226 236 232 229 318 19 45 48 40 19 17 5 227 219 225 240 248 237 216 186 167 152 140 137
290 246 228 208 208 212 214 216 205 200 197 197 198 194 185 183 191 197 200 211 218 215 210 228 248 275 288 278 273 276 278 223 216 229 251 262 253 234 210 193 185 172 160
357 328 279 227 212 210 209 216 210 208 209 205 200 199 194 191 192 197 204 209 213 213 211 216 224 243 262 271 264 251 241 231 225 230 253 270 262 248 230 211 200 193 189
3 350 331 282 233 216 215 217 215 212 212 206 205 204 202 201 199 197 202 208 212 211 213 214 217 230 259 270 268 248 232 220 219 224 244 264 259 249 249 237 220 208 207
356 351 345 329 293 242 228 223 222 216 210 210 212 209 207 206 205 202 203 211 213 210 208 208 213 221 248 252 252 236 215 209 209 219 235 250 254 246 246 251 250 228 220
356 354 350 345 336 300 258 234 225 218 210 214 212 210 211 210 208 203 207 219 213 197 191 188 192 207 231 226 217 214 196 204 214 222 232 242 246 245 249 257 263 245 234
353 350 350 349 345 328 297 258 235 222 214 215 211 210 211 211 209 205 211 219 208 190 187 198 184 186 203 206 199 194 210 215 216 221 228 238 241 239 242 255 255 243 239
350 349 349 349 348 340 319 284 246 229 221 213 210 210 206 208 207 205 210 213 202 197 197 192 189 187 193 188 180 161 221 231 217 219 224 231 237 237 234 238 239 238 239
352 351 346 347 346 345 338 320 279 248 231 219 212 206 200 198 198 198 207 202 198 209 213 196 179 185 182 145 122 126 291 254 231 233 223 222 228 229 226 228 228 230 235
348 346 343 344 342 343 334 315 287 277 251 226 214 200 193 188 188 195 199 198 193 201 202 188 180 172 171 162 149 139 220 307 274 237 230 223 225 217 220 223 224 226 229
345 343 341 338 339 340 336 326 312 292 274 223 207 204 195 188 184 180 181 181 181 187 194 189 189 182 180 186 174 154 164 215 255 290 263 240 220 211 222 221 223 228 228
337 335 334 334 337 341 342 340 331 309 284 266 247 212 191 188 177 176 173 173 175 181 187 190 187 187 178 189 192 179 158 156 165 250 307 301 258 224 226 222 223 227 227
332 333 332 335 339 343 346 345 340 329 306 300 285 214 192 184 178 173 173 171 176 184 188 188 188 192 194 194 183 165 149 129 139 162 228 291 320 273 239 228 224 225 227
336 336 339 341 342 345 348 350 351 348 348 357 6 66 111 124 135 154 169 168 176 186 192 195 194 194 198 199 194 183 176 177 185 177 197 219 254 290 285 252 232 229 228
Height
1526 1529 1531 1534 1536 1538 1539 1541 1542 1544 1545 1546 1547 1548 1550 1551 1552 1553 1554 1555 1556 1557 1557 1558 1559 1559 1560 1560 1561 1561 1562 1562 1562 1562 1562 1562 1562 1562 1562 1561 1561 1561 1562
1526 1529 1532 1534 1537 1539 1540 1542 1543 1545 1546 1547 1548 1549 1551 1552 1553 1554 1555 1556 1556 1557 1558 1559 1559 1560 1561 1561 1562 1562 1563 1563 1563 1563 1563 1563 1563 1563 1563 1563 1563 1563 1563
1527 1530 1533 1535 1538 1540 1541 1543 1545 1546 1547 1548 1549 1550 1551 1552 1553 1554 1555 1556 1557 1558 1558 1559 1560 1561 1562 1562 1563 1563 1564 1564 1564 1565 1565 1565 1564 1564 1564 1564 1564 1564 1564
1529 1531 1534 1536 1538 1541 1542 1544 1545 1547 1548 1549 1550 1551 1552 1553 1554 1555 1555 1556 1557 1557 1558 1559 1560 1561 1562 1563 1563 1564 1565 1565 1565 1566 1566 1566 1566 1566 1565 1565 1565 1565 1565
1530 1532 1535 1537 1539 1541 1543 1544 1546 1547 1548 1549 1550 1551 1552 1553 1554 1555 1556 1556 1557 1557 1558 1559 1560 1561 1562 1563 1564 1565 1565 1566 1567 1567 1567 1567 1567 1567 1567 1567 1566 1566 1566
1530 1533 1536 1538 1540 1542 1543 1545 1546 1547 1548 1549 1551 1552 1553 1553 1554 1555 1556 1556 1557 1557 1558 1559 1560 1561 1562 1563 1564 1565 1566 1567 1567 1568 1568 1568 1568 1568 1568 1567 1567 1567 1567
1531 1534 1536 1538 1540 1542 1544 1545 1546 1547 1549 1550 1551 1552 1553 1554 1555 1555 1556 1556 1557 1557 1558 1559 1560 1561 1562 1563 1564 1565 1566 1567 1568 1568 1568 1568 1568 1568 1568 1568 1568 1568 1568
1532 1535 1537 1539 1540 1542 1544 1545 1546 1548 1549 1550 1551 1552 1553 1554 1555 1555 1556 1556 1557 1558 1558 1559 1560 1561 1562 1563 1564 1565 1566 1567 1568 1569 1569 1569 1569 1569 1569 1569 1569 1569 1569
1533 1535 1537 1539 1540 1542 1543 1545 1546 1547 1548 1550 1551 1552 1553 1554 1555 1555 1556 1556 1557 1558 1558 1559 1560 1561 1562 1563 1564 1565 1567 1568 1569 1569 1569 1569 1569 1569 1569 1569 1569 1569 1569
1534 1536 1537 1539 1540 1542 1543 1544 1545 1547 1548 1549 1550 1552 1553 1554 1554 1555 1556 1556 1557 1558 1559 1559 1560 1561 1562 1563 1564 1565 1567 1568 1569 1569 1569 1569 1569 1569 1569 1569 1569 1569 1570
1535 1536 1538 1539 1540 1541 1542 1543 1544 1546 1547 1548 1549 1551 1552 1553 1554 1554 1555 1556 1557 1558 1559 1560 1560 1561 1562 1563 1564 1566 1567 1568 1569 1569 1569 1569 1569 1569 1569 1569 1569 1569 1570
1535 1536 1538 1539 1540 1541 1541 1542 1543 1544 1545 1547 1548 1549 1550 1552 1553 1553 1554 1555 1556 1557 1558 1559 1560 1561 1562 1563 1564 1566 1567 1568 1569 1569 1568 1568 1568 1567 1568 1568 1568 1569 1570
1537 1538 1538 1539 1540 1540 1541 1541 1542 1543 1544 1545 1546 1548 1549 1550 1551 1552 1553 1554 1555 1556 1557 1559 1560 1561 1562 1563 1565 1566 1567 1568 1568 1568 1568 1567 1566 1566 1566 1567 1567 1568 1569
1538 1538 1539 1539 1539 1540 1540 1540 1541 1542 1542 1543 1545 1546 1547 1548 1549 1551 1552 1553 1554 1555 1556 1558 1559 1561 1562 1563 1564 1566 1567 1567 1568 1567 1567 1566 1566 1565 1565 1566 1567 1568 1569
1536 1536 1537 1538 1538 1539 1539 1539 1539 1540 1540 1542 1543 1544 1545 1546 1548 1549 1550 1551 1552 1553 1555 1557 1558 1560 1562 1563 1564 1565 1566 1567 1567 1567 1566 1566 1565 1565 1565 1565 1566 1567 1568
1534 1534 1534 1534 1535 1536 1537 1537 1538 1538 1539 1539 1540 1541 1543 1544 1546 1547 1549 1549 1550 1552 1553 1556 1558 1559 1561 1562 1563 1564 1565 1566 1566 1566 1566 1566 1565 1565 1564 1565 1565 1566 1567
1533 1532 1531 1531 1531 1532 1533 1533 1535 1536 1536 1537 1537 1538 1540 1541 1543 1545 1546 1548 1549 1550 1552 1554 1556 1558 1559 1561 1562 1563 1564 1565 1565 1565 1566 1566 1565 1565 1565 1565 1565 1566 1566
1532 1530 1529 1528 1527 1527 1528 1529 1530 1532 1532 1533 1534 1535 1536 1538 1540 1542 1544 1545 1547 1549 1550 1552 1554 1556 1558 1559 1561 1562 1563 1563 1564 1564 1565 1565 1565 1565 1565 1565 1565 1565 1565
1532 1529 1527 1525 1524 1523 1523 1524 1525 1526 1527 1529 1530 1531 1533 1534 1536 1538 1540 1543 1545 1546 1548 1550 1552 1554 1556 1557 1559 1560 1561 1562 1562 1563 1564 1564 1565 1565 1565 1565 1565 1565 1565
1531 1528 1526 1523 1521 1519 1519 1519 1519 1520 1522 1523 1525 1527 1528 1530 1532 1534 1536 1539 1541 1543 1545 1547 1549 1551 1553 1555 1556 1557 1559 1560 1560 1561 1562 1563 1564 1564 1565 1565 1565 1564 1564
1530 1527 1524 1521 1518 1516 1515 1514 1513 1514 1515 1517 1519 1521 1523 1525 1527 1529 1532 1534 1537 1539 1541 1543 1545 1547 1550 1552 1553 1555 1556 1557 1558 1559 1560 1561 1562 1563 1563 1564 1564 1564 1564
1528 1525 1522 1519 1516 1513 1511 1510 1509 1509 1509 1510 1513 1515 1517 1519 1522 1524 1526 1529 1531 1534 1536 1538 1540 1543 1545 1548 1550 1551 1552 1554 1554 1555 1556 1558 1559 1560 1561 1562 1563 1564 1564
1527 1524 1521 1517 1514 1511 1509 1506 1505 1504 1504 1505 1506 1508 1511 1513 1516 1518 1520 1523 1525 1528 1531 1533 1535 1538 1541 1543 1546 1548 1548 1549 1550 1551 1552 1554 1555 1557 1558 1560 1561 1562 1563
1527 1523 1520 1517 1513 1509 1506 1504 1502 1500 1500 1500 1501 1503 1505 1507 1510 1513 1515 1517 1520 1522 1525 1527 1530 1533 1536 1538 1541 1543 1545 1546 1547 1547 1548 1549 1551 1553 1555 1557 1558 1559 1561
1526 1523 1519 1516 1512 1508 1505 1502 1500 1498 1497 1497 1497 1498 1500 1502 1505 1507 1510 1513 1514 1516 1519 1522 1524 1527 1530 1533 1535 1537 1539 1541 1543 1544 1545 1546 1547 1549 1551 1553 1554 1556 1558
1526 1522 1519 1515 1512 1508 1505 1502 1499 1497 1495 1495 1495 1496 1497 1499 1500 1503 1506 1508 1511 1513 1515 1517 1519 1521 1524 1526 1529 1532 1534 1536 1537 1539 1541 1542 1544 1546 1547 1549 1551 1552 1554